TimeMST,TemperatureF,Dew PointF,Humidity,Sea Level PressureIn,VisibilityMPH,Wind Direction,Wind SpeedMPH,Gust SpeedMPH,PrecipitationIn,Events,Conditions,WindDirDegrees,DateUTC
12:15 AM,35.6,28.4,75,29.53,10.0,North,4.6,-,N/A,,Clear,350,2012-11-10 07:15:00
12:35 AM,35.6,30.2,81,29.53,10.0,Calm,Calm,-,N/A,,Clear,0,2012-11-10 07:35:00
12:55 AM,35.6,30.2,81,29.53,10.0,North,4.6,-,N/A,,Clear,360,2012-11-10 07:55:00
1:15 AM,35.6,28.4,75,29.52,10.0,North,4.6,-,N/A,,Clear,10,2012-11-10 08:15:00
1:55 AM,30.2,26.6,86,29.51,10.0,Calm,Calm,-,N/A,,Clear,0,2012-11-10 08:55:00
2:15 AM,33.8,28.4,81,29.50,10.0,Calm,Calm,-,N/A,,Clear,0,2012-11-10 09:15:00
2:35 AM,33.8,28.4,81,29.49,10.0,WNW,3.5,-,N/A,,Clear,300,2012-11-10 09:35:00
2:55 AM,33.8,28.4,81,29.49,10.0,NE,4.6,-,N/A,,Clear,50,2012-11-10 09:55:00
3:15 AM,33.8,28.4,81,29.47,10.0,North,5.8,-,N/A,,Clear,10,2012-11-10 10:15:00
3:35 AM,33.8,30.2,87,29.47,10.0,NE,4.6,-,N/A,,Clear,50,2012-11-10 10:35:00
3:55 AM,30.2,26.6,86,29.47,10.0,Calm,Calm,-,N/A,,Clear,0,2012-11-10 10:55:00
4:15 AM,28.4,24.8,86,29.45,10.0,Calm,Calm,-,N/A,,Clear,0,2012-11-10 11:15:00
4:35 AM,28.4,24.8,86,29.45,5.0,West,4.6,-,N/A,,Clear,280,2012-11-10 11:35:00
4:55 AM,30.2,28.4,93,29.45,5.0,Calm,Calm,-,N/A,,Clear,0,2012-11-10 11:55:00
5:35 AM,30.2,26.6,86,29.46,9.0,North,11.5,-,N/A,,Clear,360,2012-11-10 12:35:00
5:55 AM,30.2,26.6,86,29.47,10.0,North,11.5,-,N/A,,Clear,360,2012-11-10 12:55:00
6:15 AM,33.8,30.2,87,29.48,10.0,North,12.7,-,N/A,,Clear,360,2012-11-10 13:15:00
6:35 AM,35.6,30.2,81,29.49,10.0,North,13.8,19.6,N/A,,Clear,10,2012-11-10 13:35:00
6:55 AM,35.6,30.2,81,29.49,10.0,North,16.1,-,N/A,,Clear,10,2012-11-10 13:55:00
7:15 AM,37.4,32.0,81,29.50,10.0,NNE,13.8,18.4,N/A,,Mostly Cloudy,20,2012-11-10 14:15:00
7:35 AM,37.4,30.2,75,29.50,10.0,NNE,13.8,-,N/A,,Overcast,20,2012-11-10 14:35:00
7:55 AM,37.4,32.0,81,29.52,10.0,NNE,6.9,-,N/A,,Overcast,30,2012-11-10 14:55:00
8:15 AM,39.2,32.0,75,29.49,10.0,ENE,11.5,-,N/A,,Overcast,60,2012-11-10 15:15:00
8:35 AM,39.2,33.8,81,29.53,10.0,ENE,9.2,-,N/A,,Overcast,60,2012-11-10 15:35:00
8:55 AM,39.2,32.0,75,29.51,10.0,NNE,12.7,-,N/A,,Overcast,30,2012-11-10 15:55:00
9:15 AM,39.2,32.0,75,29.53,10.0,NNE,13.8,21.9,N/A,,Overcast,30,2012-11-10 16:15:00
9:35 AM,39.2,32.0,75,29.54,10.0,NNE,8.1,-,N/A,,Overcast,20,2012-11-10 16:35:00
9:55 AM,39.2,30.2,70,29.57,10.0,NE,4.6,-,N/A,,Overcast,40,2012-11-10 16:55:00
10:15 AM,39.2,30.2,70,29.57,10.0,ENE,8.1,-,N/A,,Mostly Cloudy,70,2012-11-10 17:15:00
10:35 AM,39.2,32.0,75,29.56,10.0,NE,8.1,-,N/A,,Overcast,40,2012-11-10 17:35:00
10:55 AM,39.2,32.0,75,29.56,10.0,NE,9.2,-,N/A,,Overcast,40,2012-11-10 17:55:00
11:15 AM,39.2,33.8,81,29.56,10.0,NNE,10.4,-,N/A,,Overcast,20,2012-11-10 18:15:00
11:35 AM,39.2,30.2,70,29.56,10.0,NE,8.1,-,N/A,,Overcast,50,2012-11-10 18:35:00
11:55 AM,39.2,32.0,75,29.55,10.0,ENE,6.9,-,N/A,,Overcast,70,2012-11-10 18:55:00
12:15 PM,37.4,30.2,75,29.57,10.0,ESE,5.8,-,N/A,,Overcast,110,2012-11-10 19:15:00
12:35 PM,35.6,30.2,81,29.57,2.5,SE,10.4,-,N/A,,Overcast,140,2012-11-10 19:35:00
1:15 PM,33.8,30.2,87,29.56,1.0,East,11.5,-,N/A,,Overcast,100,2012-11-10 20:15:00
1:35 PM,33.8,30.2,87,29.56,1.2,East,12.7,-,N/A,,Overcast,90,2012-11-10 20:35:00
1:55 PM,33.8,30.2,87,29.57,3.0,East,11.5,-,N/A,,Overcast,80,2012-11-10 20:55:00
2:15 PM,33.8,30.2,87,29.58,2.0,ENE,10.4,-,N/A,,Overcast,70,2012-11-10 21:15:00
2:35 PM,32.0,30.2,93,29.58,1.0,ENE,12.7,-,N/A,,Overcast,60,2012-11-10 21:35:00
3:15 PM,32.0,30.2,93,29.61,1.5,NNE,11.5,-,N/A,,Overcast,30,2012-11-10 22:15:00
3:55 PM,28.4,26.6,93,29.63,0.8,ENE,15.0,-,N/A,,Overcast,60,2012-11-10 22:55:00
4:15 PM,28.4,26.6,93,29.65,0.5,NNE,9.2,-,N/A,,Overcast,20,2012-11-10 23:15:00
4:35 PM,28.4,26.6,93,29.66,2.0,NNE,15.0,-,N/A,,Overcast,30,2012-11-10 23:35:00
4:55 PM,26.6,24.8,93,29.67,7.0,NNE,12.7,-,N/A,,Mostly Cloudy,30,2012-11-10 23:55:00
5:15 PM,26.6,24.8,93,29.69,10.0,NNE,13.8,-,N/A,,Overcast,30,2012-11-11 00:15:00
6:15 PM,26.6,21.2,80,29.74,10.0,NNE,9.2,-,N/A,,Overcast,20,2012-11-11 01:15:00
6:35 PM,26.6,21.2,80,29.75,10.0,North,15.0,-,N/A,,Overcast,10,2012-11-11 01:35:00
6:55 PM,24.8,19.4,80,29.76,10.0,NNE,12.7,-,N/A,,Overcast,20,2012-11-11 01:55:00
7:15 PM,24.8,17.6,74,29.77,9.0,NNE,16.1,21.9,N/A,,Overcast,30,2012-11-11 02:15:00
7:35 PM,23.0,17.6,80,29.77,4.0,NNE,12.7,-,N/A,,Overcast,30,2012-11-11 02:35:00
7:55 PM,23.0,17.6,80,29.78,6.0,NNE,10.4,-,N/A,,Overcast,30,2012-11-11 02:55:00
8:15 PM,21.2,17.6,86,29.79,1.0,NE,9.2,-,N/A,,Overcast,40,2012-11-11 03:15:00
8:35 PM,21.2,19.4,93,29.80,0.8,NNE,11.5,-,N/A,,Overcast,30,2012-11-11 03:35:00
9:15 PM,21.2,17.6,86,29.82,7.0,ENE,3.5,-,N/A,,Overcast,60,2012-11-11 04:15:00
9:35 PM,21.2,17.6,86,29.83,5.0,SE,5.8,-,N/A,,Overcast,130,2012-11-11 04:35:00
9:55 PM,21.2,15.8,80,29.83,10.0,SE,6.9,-,N/A,,Overcast,140,2012-11-11 04:55:00
10:35 PM,19.4,17.6,93,29.84,10.0,SSE,8.1,-,N/A,,Mostly Cloudy,150,2012-11-11 05:35:00
10:55 PM,19.4,15.8,86,29.85,10.0,SE,5.8,-,N/A,,Scattered Clouds,140,2012-11-11 05:55:00
11:15 PM,19.4,15.8,86,29.85,10.0,SSE,6.9,-,N/A,,Mostly Cloudy,150,2012-11-11 06:15:00
11:35 PM,19.4,15.8,86,29.85,10.0,SSE,5.8,-,N/A,,Overcast,150,2012-11-11 06:35:00
11:55 PM,17.6,15.8,93,29.85,10.0,SSE,6.9,-,N/A,,Overcast,150,2012-11-11 06:55:00